TimeAST,TemperatureF,Dew PointF,Humidity,Sea Level PressureIn,VisibilityMPH,Wind Direction,Wind SpeedMPH,Gust SpeedMPH,PrecipitationIn,Events,Conditions,WindDirDegrees,DateUTC
12:00 AM,78.8,77.0,94,29.89,6.2,Calm,Calm,-,N/A,,Partly Cloudy,0,2013-09-25 04:00:00
1:00 AM,78.8,75.2,89,29.89,6.2,Calm,Calm,-,N/A,,Scattered Clouds,0,2013-09-25 05:00:00
2:00 AM,79,75,85,29.89,12,Calm,Calm,,,,Partly Cloudy,,2013-09-25 06:00:00
2:00 AM,78.8,75.2,89,29.89,6.2,Calm,Calm,-,N/A,,Scattered Clouds,0,2013-09-25 06:00:00
3:00 AM,77.0,75.2,94,29.89,6.2,Calm,Calm,-,N/A,,Partly Cloudy,0,2013-09-25 07:00:00
4:00 AM,77.0,75.2,94,29.86,6.2,Calm,Calm,-,N/A,,Partly Cloudy,0,2013-09-25 08:00:00
5:00 AM,78,74,84,29.89,11,Calm,Calm,,,,Scattered Clouds,,2013-09-25 09:00:00
5:00 AM,77.0,73.4,89,29.89,6.2,Calm,Calm,-,N/A,,Partly Cloudy,0,2013-09-25 09:00:00
6:00 AM,78.8,73.4,83,29.89,6.2,Calm,Calm,-,N/A,,Mostly Cloudy,0,2013-09-25 10:00:00
7:00 AM,80.6,75.2,84,29.92,6.2,Calm,Calm,-,N/A,,Mostly Cloudy,0,2013-09-25 11:00:00
8:00 AM,84.2,77.0,79,29.92,6.2,ESE,3.5,-,N/A,,Mostly Cloudy,110,2013-09-25 12:00:00
9:00 AM,87.8,77.0,70,29.95,6.2,ESE,11.5,-,N/A,,Mostly Cloudy,110,2013-09-25 13:00:00
10:00 AM,89.6,77.0,66,29.95,6.2,SE,6.9,-,N/A,,Scattered Clouds,140,2013-09-25 14:00:00
11:00 AM,90,75,53,29.94,9,SE,11.5,,,,Partly Cloudy,140,2013-09-25 15:00:00
11:00 AM,89.6,75.2,62,29.92,6.2,SE,11.5,-,N/A,,Scattered Clouds,140,2013-09-25 15:00:00
12:00 PM,93.2,75.2,56,29.89,6.2,SSE,9.2,-,N/A,,Scattered Clouds,150,2013-09-25 16:00:00
1:00 PM,89.6,75.2,62,29.86,6.2,SSE,6.9,-,N/A,,Mostly Cloudy,160,2013-09-25 17:00:00
2:00 PM,92,77,53,29.88,12,SE,8.1,,,,,130,2013-09-25 18:00:00
2:00 PM,93.2,77.0,59,29.86,6.2,SE,8.1,-,N/A,,Mostly Cloudy,130,2013-09-25 18:00:00
3:00 PM,89.6,73.4,59,29.83,6.2,ESE,10.4,-,N/A,,Mostly Cloudy,120,2013-09-25 19:00:00
4:00 PM,89.6,77.0,66,29.83,6.2,ESE,8.1,-,N/A,,Mostly Cloudy,110,2013-09-25 20:00:00
5:00 PM,87,77,64,29.85,12,SE,9.2,,,,Scattered Clouds,130,2013-09-25 21:00:00
5:00 PM,87.8,77.0,70,29.83,6.2,SE,9.2,-,N/A,,Mostly Cloudy,130,2013-09-25 21:00:00
6:00 PM,84.2,77.0,79,29.83,6.2,ESE,6.9,-,N/A,,Mostly Cloudy,110,2013-09-25 22:00:00
7:00 PM,82.4,77.0,84,29.86,6.2,Calm,Calm,-,N/A,,Mostly Cloudy,0,2013-09-25 23:00:00
8:00 PM,80.6,77.0,89,29.86,6.2,East,4.6,-,N/A,,Mostly Cloudy,100,2013-09-26 00:00:00
9:00 PM,80.6,77.0,89,29.89,6.2,ESE,4.6,-,N/A,,Mostly Cloudy,120,2013-09-26 01:00:00
10:00 PM,80.6,77.0,89,29.89,6.2,Calm,Calm,-,N/A,,Mostly Cloudy,0,2013-09-26 02:00:00
11:00 PM,80,76,84,29.90,11,Calm,Calm,,,,Haze,,2013-09-26 03:00:00
11:00 PM,80.6,75.2,84,29.89,6.2,Calm,Calm,-,N/A,,Mostly Cloudy,0,2013-09-26 03:00:00